Weather History for KINL - March, 2014

Change the Weather History Date:

Monday, March 31, 2014

  Actual Average Record
Temperature  
Mean Temperature 26 °F 31 °F  
Max Temperature 37 °F 43 °F 73 °F (1963)
Min Temperature 14 °F 20 °F -21 °F (1975)
Degree Days  
Heating Degree Days 39 34  
Month to date heating degree days 1606 1280  
Since 1 July heating degree days 10037 8866  
Cooling Degree Days 0 0  
Month to date cooling degree days 0 0  
Year to date cooling degree days 0 0  
Moisture  
Dew Point 21 °F    
Average Humidity 83    
Maximum Humidity 89    
Minimum Humidity 76    
Precipitation  
Precipitation 0.21 in 0.04 in 0.67 in (2006)
Month to date precipitation 1.46 0.95  
Year to date precipitation 3.21 2.14  
Snow  
Snow 2.10 in 0.20 in 7.40 in (2009)
Month to date snowfall 17.6 7.6  
Since 1 July snowfall 94.0 64.4  
Snow Depth 24.00 in    
Sea Level Pressure  
Sea Level Pressure 29.85 in    
Wind  
Wind Speed 16 mph (NE)    
Max Wind Speed 24 mph    
Max Gust Speed 37 mph    
Visibility 5 miles    
Events Fog , Rain , Snow    
T = Trace of Precipitation, MM = Missing Value Source: NWS Daily Summary

Daily Weather History Graph

Daily Weather History Graph

Search for Another Location

Airport or City:

Trip Planner

Search our weather history database for the weather conditions in past years. The results will help you decide how hot, cold, wet, or windy it might be!

Date:

Astronomy

Mar. 31, 2014 Rise Set
Actual Time 6:53 AM CDT 7:42 PM CDT
Civil Twilight 6:21 AM CDT 8:14 PM CDT
Nautical Twilight 5:43 AM CDT 8:52 PM CDT
Astronomical Twilight 5:03 AM CDT 9:32 PM CDT
Moon 7:12 AM CDT (3/31) 9:10 PM CDT (3/31)
Length of Visible Light 13h 52m
Length of Day
12h 49m
New Moon, 1% of the Moon is Illuminated
Mar 31
New Moon
Apr 7
First Quarter
Apr 15
Full
Apr 22
Last Quarter
Apr 29
New

Hourly Weather History & Observations

Time (CDT) Temp. Windchill Dew Point Humidity Pressure Visibility Wind Dir Wind Speed Gust Speed Precip Events Conditions
12:55 AM 37.0 °F 29.3 °F 30.0 °F 76% 29.98 in 10.0 mi NE 11.5 mph - N/A   Mostly Cloudy
1:19 AM 37.0 °F 30.4 °F 30.0 °F 76% 29.96 in 10.0 mi NE 9.2 mph - N/A   Overcast
1:55 AM 36.0 °F 28.5 °F 30.0 °F 79% 29.99 in 10.0 mi NE 10.4 mph - N/A   Overcast
2:55 AM 36.0 °F 27.5 °F 30.0 °F 79% 29.98 in 9.0 mi NE 12.7 mph - 0.00 in   Overcast
3:30 AM 35.1 °F 26.9 °F 30.9 °F 85% 29.92 in 10.0 mi NE 11.5 mph - 0.00 in   Overcast
3:55 AM 35.1 °F 26.9 °F 30.9 °F 85% 29.97 in 10.0 mi NE 11.5 mph - 0.00 in   Overcast
4:29 AM 35.1 °F 27.4 °F 30.9 °F 85% 29.94 in 10.0 mi NE 10.4 mph - N/A   Overcast
4:55 AM 35.1 °F 26.4 °F 30.9 °F 85% 29.97 in 10.0 mi NE 12.7 mph 20.7 mph N/A   Overcast
5:55 AM 34.0 °F 25.0 °F 30.9 °F 89% 29.96 in 2.5 mi NE 12.7 mph 21.9 mph 0.01 in Snow Light Snow
6:22 AM 34.0 °F 25.0 °F 30.9 °F 89% 29.92 in 3.0 mi NE 12.7 mph 23.0 mph 0.00 in Snow Light Snow
6:52 AM 33.8 °F 24.3 °F 30.2 °F 87% 29.92 in 1.8 mi NE 13.8 mph 23.0 mph 0.01 in Snow Light Snow
6:55 AM 34.0 °F 24.6 °F 30.9 °F 89% 29.95 in 1.8 mi ENE 13.8 mph - 0.01 in Snow Light Snow
7:55 AM 34.0 °F 23.4 °F 30.9 °F 89% 29.94 in 1.0 mi NE 17.3 mph 24.2 mph 0.03 in Snow Light Snow
8:02 AM 33.1 °F 21.9 °F 30.9 °F 92% 29.89 in 0.8 mi NE 18.4 mph 26.5 mph 0.00 in Snow Light Snow
8:36 AM 33.1 °F 22.6 °F 30.9 °F 92% 29.89 in 1.2 mi NE 16.1 mph 24.2 mph 0.02 in Snow Light Snow
8:55 AM 33.1 °F 23.4 °F 30.9 °F 92% 29.93 in 2.5 mi NE 13.8 mph 23.0 mph 0.02 in Snow Light Snow
9:04 AM 33.1 °F 23.4 °F 30.9 °F 92% 29.88 in 5.0 mi NE 13.8 mph 23.0 mph 0.00 in   Overcast
9:55 AM 30.9 °F 19.4 °F 27.0 °F 85% 29.92 in 10.0 mi NE 17.3 mph 26.5 mph 0.00 in   Overcast
10:02 AM 30.0 °F 18.7 °F 27.0 °F 88% 29.87 in 10.0 mi NE 16.1 mph 28.8 mph N/A   Overcast
10:55 AM 28.0 °F 16.5 °F 24.1 °F 85% 29.92 in 10.0 mi NE 15.0 mph 28.8 mph 0.00 in   Overcast
11:55 AM 27.0 °F 14.7 °F 23.0 °F 85% 29.90 in 8.0 mi NE 16.1 mph 27.6 mph 0.00 in   Overcast
12:55 PM 27.0 °F 12.8 °F 21.9 °F 81% 29.85 in 10.0 mi NE 21.9 mph 29.9 mph N/A   Overcast
1:55 PM 26.1 °F 12.7 °F 21.0 °F 81% 29.84 in 10.0 mi ENE 18.4 mph 28.8 mph N/A   Overcast
2:55 PM 25.0 °F 10.9 °F 19.9 °F 81% 29.83 in 10.0 mi NE 19.6 mph 32.2 mph N/A   Overcast
3:03 PM 25.0 °F 10.6 °F 19.9 °F 81% 29.77 in 1.8 mi NE 20.7 mph 31.1 mph 0.00 in Snow Light Snow
3:10 PM 24.1 °F 10.1 °F 19.0 °F 81% 29.77 in 3.0 mi NE 18.4 mph 31.1 mph 0.00 in Snow Light Snow
3:55 PM 24.1 °F 9.4 °F 19.0 °F 81% 29.79 in 10.0 mi NE 20.7 mph 31.1 mph 0.00 in   Overcast
4:55 PM 21.9 °F 8.7 °F 17.1 °F 82% 29.78 in 10.0 mi NE 15.0 mph 27.6 mph N/A   Overcast
5:25 PM 19.9 °F 3.5 °F 15.1 °F 81% 29.71 in 4.0 mi NE 21.9 mph 32.2 mph 0.00 in Rain Light Freezing Rain
5:55 PM 19.0 °F 2.7 °F 14.0 °F 81% 29.77 in 4.0 mi NE 20.7 mph 32.2 mph 0.01 in   Overcast
6:04 PM 19.0 °F 5.0 °F 12.9 °F 77% 29.72 in 2.5 mi NE 15.0 mph 33.4 mph 0.01 in Snow Light Snow
6:24 PM 18.0 °F 4.2 °F 12.0 °F 78% 29.77 in 1.2 mi NE 13.8 mph 24.2 mph 0.01 in Snow Light Snow
6:37 PM 18.0 °F 4.8 °F 12.9 °F 81% 29.80 in 0.8 mi NE 12.7 mph - 0.01 in Snow Light Snow
6:55 PM 17.1 °F 1.5 °F 12.0 °F 81% 29.85 in 0.2 mi NNE 17.3 mph 25.3 mph 0.02 in Snow Heavy Snow
7:24 PM 16.0 °F 0.1 °F 12.0 °F 84% 29.77 in 0.5 mi NNE 17.3 mph 26.5 mph 0.02 in Fog , Snow Snow
7:55 PM 15.1 °F -1.6 °F 10.9 °F 84% 29.80 in 0.8 mi NNE 18.4 mph 31.1 mph 0.04 in Snow Light Snow
8:02 PM 15.1 °F -2.0 °F 10.9 °F 84% 29.74 in 1.0 mi NNE 19.6 mph 29.9 mph 0.00 in Snow Light Snow
8:21 PM 15.1 °F -2.5 °F 10.0 °F 80% 29.74 in 1.5 mi NE 20.7 mph 32.2 mph 0.00 in Snow Light Snow
8:55 PM 15.1 °F -1.6 °F 10.0 °F 80% 29.81 in 1.2 mi NE 18.4 mph 27.6 mph 0.02 in Snow Light Snow
9:09 PM 15.1 °F -2.0 °F 10.0 °F 80% 29.75 in 3.0 mi NE 19.6 mph 28.8 mph 0.00 in Snow Light Snow
9:18 PM 15.1 °F -2.0 °F 10.0 °F 80% 29.75 in 2.5 mi NE 19.6 mph 27.6 mph 0.00 in Snow Light Snow
9:36 PM 15.1 °F -0.1 °F 10.0 °F 80% 29.74 in 3.0 mi NNE 15.0 mph 24.2 mph 0.00 in   Overcast
9:55 PM 15.1 °F 1.1 °F 10.0 °F 80% 29.82 in 2.5 mi NE 12.7 mph 26.5 mph 0.00 in Snow Light Snow
10:07 PM 15.1 °F -0.1 °F 10.0 °F 80% 29.74 in 1.5 mi NE 15.0 mph 27.6 mph 0.01 in Snow Light Snow
10:25 PM 15.1 °F -0.6 °F 10.9 °F 84% 29.73 in 1.0 mi NNE 16.1 mph - 0.01 in Snow Light Snow
10:55 PM 15.1 °F -0.1 °F 10.9 °F 84% 29.80 in 1.5 mi NNE 15.0 mph 24.2 mph 0.02 in Snow Light Snow
11:45 PM 15.1 °F -0.1 °F 10.0 °F 80% 29.71 in 1.5 mi NNE 15.0 mph 24.2 mph 0.01 in Snow Light Snow
11:55 PM 15.1 °F -0.6 °F 10.0 °F 80% 29.78 in 1.5 mi NNE 16.1 mph 26.5 mph 0.01 in Snow Light Snow